Location: Croydon
(51.3762°N, 0.0982°W)
Time: 02:20:34
(UTC+00:00)

Altair - Pass Details

Date: 20 November 2019
Orbit: 1502 x 1682 km, 47.2° (Epoch: 12 December)

Event Time Altitude Azimuth Distance (km) Brightness Sun altitude
Rises 07:42:20 0° 282° (WNW) 4,643 9.4 1.3°
Reaches altitude 10° 07:45:26 10° 277° (W) 3,669 9.0 1.7°
Maximum altitude 07:54:12 51° 206° (SSW) 1,868 8.2 2.8°
Drops below altitude 10° 08:03:13 10° 134° (SE) 3,765 12.2 3.9°
Sets 08:06:27 0° 129° (SE) 4,773 13.4 4.3°
